Temp
-13 -13 -13 -13 -13 -14 -14 -14 -14 -14 -14 -14 -14 -15 -15 -15 -15 -16 -16 -16 -16 -16 -17 -17 -17 -16 -16 -16 -16 -16 -16 -17 -17 -17 -17 -17 -18 -18 -18 -18 -18 -18 -19 -19 -19 -19 -19 -19 -19 -19 -19 -19 -19 -19 -19 -19 -19 -19 -19 -18 -18 -18 -17
-13 -13 -13 -13 -13 -14 -14 -14 -14 -14 -14 -14 -14 -15 -15 -15 -15 -16 -16 -16 -16 -16 -17 -17 -17 -17 -16 -16 -16 -16 -16 -16 -17 -17 -17 -17 -17 -18 -18 -19 -19 -19 -19 -19 -19 -19 -19 -19 -19 -19 -19 -19 -19 -19 -19 -19 -19 -19 -19 -19 -18 -18 -18
-13 -13 -13 -13 -13 -14 -14 -14 -14 -14 -14 -14 -15 -15 -15 -15 -15 -16 -16 -16 -16 -16 -17 -17 -17 -17 -17 -16 -16 -16 -16 -17 -16 -17 -17 -18 -18 -18 -18 -18 -18 -19 -19 -19 -19 -19 -19 -19 -19 -19 -19 -19 -19 -19 -19 -19 -19 -19 -19 -19 -19 -18 -18
-13 -13 -13 -13 -13 -14 -14 -14 -14 -14 -14 -14 -15 -15 -15 -15 -16 -16 -16 -16 -16 -16 -16 -17 -17 -17 -17 -17 -17 -17 -17 -17 -17 -17 -17 -18 -18 -18 -18 -19 -19 -19 -19 -19 -19 -19 -19 -19 -19 -19 -19 -19 -19 -19 -19 -19 -18 -19 -19 -19 -19 -18 -18
-13 -13 -13 -13 -14 -14 -14 -14 -14 -14 -14 -14 -15 -15 -15 -15 -16 -16 -16 -16 -16 -16 -16 -17 -17 -17 -17 -17 -17 -17 -17 -17 -17 -17 -17 -18 -18 -18 -19 -19 -19 -19 -19 -19 -19 -19 -19 -19 -19 -19 -19 -19 -18 -18 -18 -18 -18 -18 -18 -18 -18 -18 -18
-13 -13 -13 -14 -14 -14 -14 -14 -14 -14 -14 -14 -15 -15 -15 -15 -16 -16 -16 -16 -16 -16 -16 -17 -17 -17 -17 -17 -17 -17 -17 -17 -17 -17 -17 -18 -18 -18 -18 -18 -19 -19 -18 -18 -18 -18 -18 -18 -18 -18 -18 -19 -19 -18 -18 -18 -18 -18 -18 -18 -18 -18 -18
-13 -13 -13 -14 -14 -14 -14 -14 -14 -14 -14 -15 -15 -15 -15 -15 -16 -16 -16 -16 -16 -16 -16 -16 -17 -17 -17 -17 -17 -17 -17 -17 -17 -17 -17 -17 -18 -18 -18 -18 -18 -18 -18 -18 -18 -18 -18 -18 -18 -18 -18 -18 -18 -18 -18 -18 -18 -18 -18 -18 -18 -18 -18
-13 -13 -13 -14 -14 -14 -14 -14 -14 -14 -15 -15 -15 -15 -15 -15 -16 -16 -16 -16 -16 -16 -16 -16 -17 -17 -17 -17 -17 -17 -17 -17 -17 -17 -17 -17 -18 -18 -18 -18 -18 -18 -18 -18 -17 -17 -17 -17 -18 -18 -18 -18 -18 -18 -18 -17 -17 -17 -17 -17 -17 -17 -17
-13 -13 -14 -14 -14 -14 -14 -14 -14 -14 -15 -15 -15 -15 -15 -15 -16 -16 -16 -16 -16 -16 -16 -16 -17 -17 -17 -17 -17 -17 -17 -17 -17 -17 -17 -18 -18 -18 -18 -18 -18 -18 -18 -18 -17 -17 -17 -17 -17 -17 -17 -17 -18 -18 -17 -17 -17 -17 -17 -17 -17 -17 -17
-13 -13 -14 -14 -14 -14 -14 -14 -14 -14 -15 -15 -15 -15 -15 -15 -16 -16 -16 -16 -16 -16 -16 -16 -17 -17 -17 -17 -17 -17 -17 -17 -17 -17 -18 -18 -18 -18 -18 -18 -18 -18 -18 -18 -17 -17 -17 -17 -17 -17 -17 -18 -17 -17 -17 -17 -17 -17 -17 -17 -17 -17 -17
-13 -13 -14 -14 -14 -14 -14 -14 -14 -14 -14 -15 -15 -15 -15 -15 -16 -16 -16 -16 -16 -16 -16 -16 -16 -17 -17 -17 -17 -17 -17 -18 -18 -17 -17 -18 -18 -18 -18 -18 -18 -18 -18 -18 -17 -18 -17 -17 -17 -17 -17 -17 -17 -17 -17 -17 -17 -17 -17 -17 -17 -17 -16
-13 -14 -14 -14 -14 -14 -14 -14 -14 -14 -14 -15 -15 -15 -15 -15 -16 -16 -16 -16 -16 -16 -16 -16 -16 -17 -17 -17 -17 -17 -17 -18 -18 -18 -18 -17 -18 -18 -18 -18 -18 -18 -18 -18 -18 -18 -18 -17 -17 -17 -17 -17 -17 -17 -17 -16 -16 -16 -17 -17 -16 -16 -16
-14 -14 -14 -14 -14 -14 -14 -14 -14 -14 -14 -15 -15 -15 -15 -15 -16 -16 -16 -16 -16 -16 -16 -16 -16 -17 -17 -17 -17 -17 -17 -17 -18 -18 -18 -18 -18 -18 -18 -18 -18 -18 -18 -18 -18 -18 -18 -18 -17 -17 -17 -17 -17 -17 -17 -17 -17 -17 -17 -17 -17 -17 -16
-14 -14 -14 -14 -14 -14 -14 -14 -14 -14 -14 -15 -15 -15 -15 -15 -16 -16 -16 -16 -16 -16 -16 -16 -16 -17 -17 -17 -17 -17 -17 -17 -17 -18 -18 -18 -18 -18 -18 -18 -18 -18 -18 -18 -18 -18 -18 -18 -18 -18 -18 -18 -18 -17 -17 -17 -17 -17 -17 -17 -17 -17 -17
-14 -14 -14 -14 -14 -14 -14 -14 -14 -14 -14 -14 -15 -15 -15 -15 -16 -16 -16 -16 -16 -16 -16 -17 -17 -17 -17 -17 -17 -17 -17 -17 -17 -18 -18 -18 -18 -18 -18 -18 -18 -18 -18 -18 -18 -18 -18 -18 -18 -18 -18 -18 -18 -18 -18 -18 -17 -17 -17 -17 -17 -17 -17
-14 -14 -14 -14 -14 -14 -14 -14 -14 -14 -14 -14 -15 -15 -15 -15 -15 -16 -16 -16 -16 -16 -16 -17 -17 -17 -17 -17 -17 -17 -17 -17 -17 -18 -18 -18 -18 -18 -18 -18 -18 -18 -18 -18 -18 -18 -18 -18 -18 -18 -18 -18 -18 -18 -18 -18 -18 -18 -18 -18 -18 -18 -18
-14 -14 -14 -14 -14 -14 -14 -14 -14 -14 -14 -14 -15 -15 -15 -15 -15 -16 -16 -16 -16 -16 -16 -17 -17 -17 -17 -17 -17 -17 -17 -17 -17 -17 -17 -18 -18 -18 -18 -18 -18 -18 -18 -18 -18 -18 -18 -18 -18 -18 -18 -18 -18 -18 -18 -18 -18 -18 -18 -18 -18 -18 -18
-14 -14 -14 -14 -14 -14 -14 -14 -14 -14 -14 -14 -14 -15 -15 -15 -15 -16 -16 -16 -16 -16 -16 -17 -17 -17 -17 -17 -17 -17 -17 -17 -17 -17 -17 -17 -18 -18 -18 -18 -18 -18 -18 -18 -18 -18 -18 -18 -18 -18 -18 -18 -18 -18 -18 -18 -18 -18 -18 -18 -18 -18 -18
-14 -14 -14 -14 -14 -14 -14 -14 -14 -14 -14 -14 -14 -15 -15 -15 -15 -16 -16 -16 -16 -16 -16 -17 -17 -17 -17 -17 -17 -17 -17 -17 -17 -18 -17 -17 -17 -18 -18 -18 -18 -18 -18 -18 -18 -18 -18 -18 -18 -18 -18 -18 -18 -18 -18 -18 -18 -18 -18 -18 -18 -18 -18
-14 -14 -14 -14 -14 -14 -14 -14 -14 -14 -14 -14 -14 -15 -15 -15 -15 -16 -16 -16 -16 -16 -16 -17 -17 -17 -17 -17 -17 -17 -17 -17 -17 -18 -18 -17 -17 -17 -18 -18 -18 -18 -18 -18 -18 -18 -18 -18 -18 -18 -18 -18 -18 -18 -18 -18 -18 -18 -18 -18 -18 -17 -17
-14 -14 -14 -14 -14 -14 -14 -14 -14 -14 -14 -14 -15 -15 -15 -15 -15 -16 -16 -16 -16 -16 -17 -17 -17 -17 -17 -17 -17 -17 -17 -17 -17 -18 -18 -18 -18 -17 -17 -18 -18 -18 -18 -18 -18 -18 -18 -18 -18 -18 -18 -18 -18 -18 -18 -18 -18 -18 -18 -18 -17 -17 -17
-14 -14 -14 -14 -14 -14 -14 -14 -14 -14 -14 -15 -15 -15 -15 -15 -15 -16 -16 -16 -16 -16 -17 -17 -17 -17 -17 -17 -17 -17 -17 -17 -17 -17 -18 -18 -18 -18 -18 -18 -18 -18 -18 -18 -18 -18 -18 -18 -18 -18 -18 -18 -18 -18 -18 -18 -18 -18 -18 -18 -18 -18 -17
-14 -14 -14 -14 -14 -14 -14 -14 -14 -14 -14 -15 -15 -15 -15 -15 -15 -16 -16 -16 -16 -16 -17 -17 -17 -17 -17 -17 -17 -17 -17 -17 -17 -17 -18 -18 -18 -18 -18 -18 -18 -18 -18 -18 -18 -18 -18 -18 -18 -18 -18 -18 -18 -18 -18 -18 -18 -18 -18 -18 -18 -18 -18
-14 -14 -14 -14 -14 -14 -14 -14 -14 -14 -15 -15 -15 -15 -15 -15 -15 -16 -16 -16 -16 -16 -16 -17 -17 -17 -17 -17 -17 -17 -17 -17 -17 -17 -17 -18 -18 -18 -18 -18 -18 -18 -18 -18 -18 -18 -18 -18 -18 -18 -18 -18 -18 -18 -18 -18 -18 -18 -18 -18 -17 -17 -17
-14 -14 -14 -14 -14 -14 -14 -14 -14 -14 -15 -15 -15 -15 -15 -15 -15 -16 -16 -16 -16 -16 -16 -16 -17 -17 -17 -17 -17 -17 -17 -17 -17 -17 -17 -17 -18 -18 -18 -18 -18 -18 -18 -18 -18 -18 -18 -18 -18 -18 -18 -18 -18 -18 -18 -18 -18 -18 -18 -18 -18 -18 -18
-14 -14 -14 -14 -14 -14 -14 -14 -14 -14 -15 -15 -15 -15 -15 -15 -15 -16 -16 -16 -16 -16 -16 -16 -17 -17 -17 -17 -17 -17 -17 -18 -18 -17 -17 -17 -18 -18 -18 -18 -18 -18 -18 -18 -18 -18 -18 -18 -18 -18 -18 -18 -18 -18 -18 -18 -18 -18 -18 -18 -18 -18 -18
-14 -14 -14 -14 -14 -14 -14 -14 -14 -15 -15 -15 -15 -15 -15 -15 -15 -16 -16 -16 -16 -16 -16 -16 -17 -17 -16 -16 -17 -17 -17 -17 -18 -18 -18 -18 -18 -18 -18 -18 -18 -18 -18 -18 -18 -18 -18 -18 -18 -18 -18 -18 -18 -18 -18 -18 -18 -18 -18 -18 -18 -18 -18
-14 -14 -14 -14 -14 -14 -14 -14 -14 -15 -15 -15 -15 -15 -15 -15 -15 -16 -16 -16 -16 -16 -16 -16 -16 -17 -17 -17 -17 -17 -17 -17 -17 -18 -18 -18 -18 -18 -18 -18 -18 -18 -18 -18 -18 -18 -18 -18 -18 -18 -18 -18 -18 -18 -18 -18 -18 -18 -18 -18 -18 -18 -18
-14 -14 -14 -14 -14 -14 -14 -14 -15 -15 -15 -15 -15 -15 -15 -15 -15 -16 -16 -16 -16 -16 -16 -16 -16 -16 -17 -17 -17 -17 -17 -17 -17 -18 -18 -18 -18 -18 -18 -18 -18 -18 -18 -18 -18 -18 -18 -18 -18 -18 -18 -18 -18 -18 -18 -18 -18 -18 -18 -18 -18 -18 -18
-14 -14 -14 -14 -14 -14 -14 -14 -15 -15 -15 -15 -15 -15 -15 -15 -15 -16 -16 -16 -16 -16 -16 -16 -16 -16 -17 -17 -17 -17 -17 -17 -17 -17 -18 -18 -18 -18 -18 -18 -18 -18 -18 -18 -18 -18 -18 -18 -18 -18 -18 -18 -18 -18 -18 -18 -18 -18 -18 -18 -18 -18 -18
-14 -14 -14 -14 -14 -14 -14 -14 -15 -15 -15 -15 -15 -15 -15 -15 -16 -16 -16 -16 -16 -16 -16 -16 -16 -16 -16 -17 -17 -17 -17 -17 -17 -17 -17 -18 -18 -18 -18 -18 -18 -18 -18 -18 -18 -18 -18 -18 -18 -18 -18 -18 -18 -18 -18 -18 -18 -18 -18 -18 -18 -18 -18
-14 -14 -14 -14 -14 -14 -14 -14 -15 -15 -15 -15 -15 -15 -15 -15 -16 -16 -16 -16 -16 -16 -16 -16 -16 -16 -16 -16 -17 -17 -17 -17 -17 -17 -17 -17 -18 -18 -18 -18 -18 -18 -18 -18 -18 -18 -18 -18 -18 -19 -18 -18 -18 -18 -18 -18 -18 -18 -18 -18 -18 -18 -18
-14 -14 -14 -14 -14 -14 -14 -14 -15 -15 -15 -15 -15 -15 -15 -15 -16 -16 -16 -16 -16 -16 -16 -16 -16 -16 -16 -16 -17 -17 -17 -17 -17 -17 -17 -17 -18 -18 -18 -18 -18 -18 -18 -18 -19 -19 -19 -19 -19 -19 -19 -19 -19 -19 -18 -18 -19 -19 -19 -19 -19 -19 -19
-14 -14 -14 -14 -14 -14 -14 -14 -15 -15 -15 -15 -15 -15 -15 -16 -16 -16 -16 -16 -16 -16 -16 -16 -16 -16 -16 -16 -17 -17 -17 -17 -17 -17 -18 -18 -18 -18 -18 -18 -18 -19 -19 -19 -19 -19 -19 -19 -19 -19 -19 -19 -19 -19 -19 -19 -19 -19 -19 -19 -19 -19 -19
-14 -14 -14 -15 -15 -14 -14 -15 -15 -15 -15 -15 -15 -16 -16 -16 -16 -16 -16 -16 -16 -16 -16 -16 -16 -17 -17 -17 -17 -17 -17 -17 -17 -18 -18 -18 -18 -18 -18 -19 -19 -19 -19 -19 -19 -19 -19 -19 -19 -19 -19 -19 -19 -19 -19 -19 -19 -19 -19 -19 -19 -19 -19
-14 -14 -15 -15 -15 -15 -15 -15 -15 -15 -15 -15 -16 -16 -16 -16 -16 -16 -16 -16 -16 -16 -17 -17 -17 -17 -17 -17 -17 -17 -18 -18 -18 -18 -18 -18 -18 -18 -19 -19 -19 -19 -19 -19 -19 -19 -19 -19 -19 -19 -19 -19 -19 -19 -19 -20 -20 -20 -19 -19 -19 -19 -19
-14 -14 -15 -15 -15 -15 -15 -15 -15 -15 -15 -16 -16 -16 -16 -16 -16 -16 -16 -17 -17 -17 -17 -17 -17 -17 -17 -17 -17 -17 -18 -18 -18 -18 -19 -19 -19 -19 -19 -19 -19 -19 -19 -19 -19 -19 -19 -20 -20 -20 -20 -20 -20 -20 -20 -20 -20 -20 -20 -20 -20 -20 -19
Height
5766 5762 5758 5754 5751 5747 5743 5740 5736 5732 5727 5723 5719 5715 5712 5708 5704 5701 5697 5692 5687 5682 5677 5671 5664 5656 5649 5643 5638 5634 5630 5626 5621 5616 5611 5606 5602 5599 5596 5592 5589 5586 5583 5581 5580 5578 5577 5575 5573 5571 5569 5567 5566 5565 5565 5565 5566 5566 5568 5569 5571 5573 5576
5765 5762 5758 5754 5750 5747 5743 5740 5736 5732 5727 5723 5719 5715 5712 5708 5704 5701 5697 5693 5688 5683 5678 5672 5666 5659 5652 5645 5640 5635 5632 5628 5623 5618 5613 5609 5604 5600 5597 5593 5590 5587 5584 5582 5581 5580 5579 5577 5576 5574 5572 5570 5569 5569 5569 5569 5569 5570 5571 5571 5573 5575 5578
5765 5761 5758 5754 5750 5746 5743 5739 5736 5731 5727 5723 5719 5715 5712 5708 5704 5701 5698 5694 5689 5684 5679 5673 5667 5661 5655 5648 5642 5636 5632 5629 5625 5620 5615 5611 5607 5603 5599 5595 5592 5588 5586 5584 5583 5582 5581 5579 5578 5577 5575 5574 5573 5572 5572 5572 5572 5573 5574 5574 5576 5578 5581
5764 5761 5757 5753 5750 5746 5743 5739 5736 5732 5728 5724 5719 5716 5712 5708 5705 5702 5698 5694 5690 5685 5680 5675 5669 5664 5658 5652 5646 5640 5635 5630 5626 5622 5617 5613 5609 5605 5602 5598 5595 5592 5589 5587 5585 5584 5583 5581 5580 5579 5578 5578 5577 5576 5575 5575 5575 5575 5577 5578 5579 5581 5584
5764 5761 5757 5753 5750 5746 5743 5740 5736 5732 5728 5724 5720 5716 5712 5709 5705 5702 5699 5695 5691 5687 5682 5676 5671 5666 5660 5655 5649 5644 5638 5633 5628 5624 5620 5615 5611 5608 5604 5601 5598 5595 5592 5590 5588 5587 5585 5584 5583 5582 5581 5581 5580 5579 5579 5578 5577 5577 5579 5581 5582 5584 5587
5764 5760 5757 5753 5750 5746 5743 5740 5736 5732 5728 5724 5720 5716 5712 5709 5706 5703 5699 5696 5692 5688 5683 5678 5673 5668 5662 5657 5652 5647 5642 5636 5631 5627 5623 5618 5614 5611 5607 5604 5601 5598 5596 5593 5591 5589 5588 5587 5586 5585 5584 5583 5583 5582 5582 5581 5580 5580 5581 5583 5585 5587 5589
5763 5760 5757 5754 5750 5747 5743 5740 5736 5733 5728 5724 5720 5716 5713 5710 5706 5703 5700 5697 5693 5689 5684 5680 5675 5670 5665 5660 5654 5649 5644 5639 5633 5628 5625 5621 5618 5614 5609 5606 5603 5601 5599 5596 5594 5593 5591 5590 5589 5588 5588 5587 5586 5586 5585 5584 5583 5583 5584 5585 5588 5590 5593
5763 5760 5757 5754 5750 5747 5744 5740 5737 5733 5729 5725 5721 5717 5714 5710 5707 5704 5701 5697 5693 5690 5685 5681 5677 5672 5667 5662 5657 5651 5646 5641 5636 5631 5627 5624 5621 5617 5613 5610 5606 5603 5601 5599 5597 5596 5595 5594 5593 5592 5591 5590 5589 5588 5587 5585 5585 5586 5587 5588 5591 5593 5596
5763 5760 5757 5754 5750 5747 5744 5741 5737 5733 5729 5726 5722 5718 5715 5711 5707 5704 5701 5698 5694 5691 5687 5683 5678 5674 5669 5665 5660 5655 5650 5645 5640 5635 5631 5627 5624 5621 5617 5614 5610 5606 5603 5601 5600 5599 5598 5597 5596 5595 5594 5593 5592 5590 5588 5588 5588 5589 5590 5592 5594 5596 5597
5762 5759 5757 5754 5750 5747 5744 5741 5737 5734 5730 5726 5722 5719 5715 5712 5708 5705 5702 5698 5695 5692 5688 5684 5680 5676 5672 5668 5663 5659 5654 5649 5644 5639 5635 5631 5628 5624 5621 5618 5615 5611 5607 5604 5603 5602 5600 5599 5598 5597 5596 5595 5594 5592 5591 5591 5592 5592 5593 5594 5596 5597 5599
5762 5759 5756 5754 5750 5747 5744 5741 5738 5734 5731 5727 5723 5720 5716 5713 5709 5706 5702 5699 5696 5693 5690 5686 5682 5678 5674 5670 5666 5662 5658 5653 5648 5644 5640 5636 5632 5628 5625 5622 5618 5615 5611 5609 5607 5605 5603 5602 5601 5600 5599 5598 5597 5595 5594 5594 5595 5595 5596 5596 5598 5600 5601
5762 5759 5756 5753 5750 5747 5744 5741 5738 5735 5731 5727 5724 5720 5717 5713 5710 5707 5703 5700 5697 5694 5691 5687 5684 5680 5676 5672 5669 5665 5661 5657 5652 5648 5644 5640 5636 5632 5628 5625 5622 5619 5616 5613 5611 5609 5607 5606 5605 5604 5603 5601 5600 5599 5598 5598 5598 5598 5599 5600 5601 5602 5603
5762 5759 5756 5753 5750 5747 5744 5741 5738 5735 5731 5728 5724 5721 5718 5714 5711 5708 5704 5700 5697 5694 5692 5689 5685 5682 5678 5675 5671 5667 5664 5660 5657 5653 5649 5644 5640 5636 5632 5629 5625 5622 5620 5617 5616 5614 5612 5611 5610 5609 5607 5606 5604 5604 5603 5603 5602 5602 5602 5603 5604 5604 5605
5762 5759 5756 5753 5750 5748 5745 5741 5738 5735 5732 5728 5725 5722 5718 5715 5712 5708 5705 5702 5698 5695 5692 5689 5687 5683 5680 5677 5673 5670 5666 5663 5660 5657 5653 5648 5645 5640 5636 5632 5629 5627 5625 5623 5621 5619 5617 5616 5615 5613 5613 5611 5610 5609 5608 5607 5606 5606 5605 5605 5606 5606 5607
5761 5759 5756 5753 5751 5748 5745 5742 5739 5735 5732 5729 5725 5722 5719 5716 5713 5709 5706 5703 5700 5696 5693 5690 5687 5685 5682 5678 5675 5672 5669 5665 5662 5659 5656 5653 5649 5646 5641 5637 5634 5632 5629 5627 5625 5624 5622 5620 5619 5618 5617 5616 5615 5614 5612 5611 5610 5609 5608 5608 5608 5608 5609
5761 5759 5756 5753 5751 5748 5745 5742 5739 5736 5733 5729 5726 5723 5720 5716 5713 5710 5707 5704 5701 5698 5694 5691 5688 5686 5683 5680 5677 5674 5671 5668 5665 5662 5659 5656 5653 5650 5646 5643 5640 5637 5634 5631 5629 5628 5627 5625 5624 5622 5621 5620 5618 5617 5616 5615 5615 5614 5614 5613 5612 5612 5613
5761 5758 5756 5753 5751 5748 5745 5742 5739 5736 5733 5730 5727 5723 5720 5717 5714 5711 5708 5705 5702 5699 5696 5693 5690 5687 5684 5682 5679 5676 5673 5670 5667 5664 5662 5659 5656 5653 5650 5647 5644 5641 5638 5635 5633 5631 5630 5628 5627 5626 5625 5624 5622 5621 5620 5620 5619 5619 5619 5618 5618 5617 5617
5760 5758 5756 5753 5751 5749 5746 5743 5740 5736 5734 5731 5727 5724 5721 5718 5715 5711 5708 5706 5703 5700 5697 5694 5691 5688 5686 5683 5681 5678 5675 5672 5669 5667 5664 5661 5658 5656 5653 5650 5647 5644 5641 5639 5637 5635 5633 5631 5629 5627 5627 5626 5625 5625 5624 5623 5623 5623 5623 5622 5621 5621 5621
5760 5758 5755 5753 5751 5749 5746 5743 5740 5737 5734 5731 5728 5725 5721 5718 5715 5712 5709 5706 5703 5700 5697 5695 5692 5689 5687 5684 5682 5679 5677 5674 5671 5669 5666 5663 5661 5658 5656 5653 5650 5647 5644 5642 5641 5639 5636 5634 5632 5630 5628 5627 5627 5626 5626 5626 5625 5624 5624 5623 5623 5623 5623
5760 5758 5755 5753 5751 5749 5746 5744 5741 5738 5734 5731 5728 5725 5722 5719 5715 5712 5709 5706 5703 5701 5698 5695 5693 5690 5687 5685 5683 5681 5678 5675 5673 5670 5668 5665 5663 5661 5658 5656 5653 5650 5648 5646 5644 5642 5640 5638 5636 5634 5632 5630 5629 5628 5627 5627 5626 5626 5625 5625 5625 5624 5624
5760 5757 5755 5753 5751 5749 5746 5744 5741 5738 5735 5732 5729 5726 5722 5719 5716 5713 5710 5707 5704 5701 5698 5696 5693 5691 5688 5686 5684 5681 5679 5677 5674 5672 5669 5667 5665 5662 5660 5658 5655 5653 5651 5649 5647 5645 5643 5641 5639 5637 5635 5634 5632 5631 5629 5628 5628 5627 5627 5627 5626 5626 5625
5759 5757 5755 5753 5751 5749 5746 5744 5741 5739 5736 5733 5730 5727 5723 5719 5716 5713 5710 5707 5704 5701 5699 5696 5694 5691 5689 5686 5684 5682 5680 5678 5675 5673 5671 5668 5666 5664 5662 5660 5658 5656 5654 5652 5650 5648 5645 5644 5642 5640 5638 5637 5635 5634 5632 5631 5630 5628 5628 5627 5627 5627 5627
5759 5757 5754 5752 5750 5749 5746 5744 5742 5739 5736 5733 5730 5727 5724 5720 5717 5713 5710 5707 5704 5702 5699 5697 5694 5692 5689 5687 5684 5682 5680 5678 5676 5674 5672 5670 5668 5666 5664 5662 5660 5658 5656 5653 5651 5649 5648 5646 5644 5643 5641 5639 5638 5636 5635 5633 5632 5630 5629 5628 5627 5627 5627
5758 5756 5754 5752 5750 5748 5746 5744 5742 5739 5736 5733 5731 5728 5724 5721 5718 5714 5711 5708 5705 5702 5700 5697 5695 5692 5690 5687 5684 5682 5680 5678 5677 5675 5673 5671 5669 5667 5665 5663 5661 5659 5657 5655 5653 5651 5650 5648 5646 5645 5643 5641 5640 5638 5637 5635 5633 5632 5631 5629 5628 5627 5627
5758 5756 5754 5752 5750 5748 5746 5744 5741 5739 5736 5734 5731 5728 5725 5722 5718 5715 5711 5708 5705 5703 5700 5698 5695 5693 5690 5687 5685 5682 5681 5679 5677 5675 5673 5671 5669 5668 5666 5664 5662 5660 5658 5656 5655 5653 5651 5649 5648 5646 5644 5643 5641 5640 5638 5637 5635 5634 5632 5631 5629 5628 5627
5757 5755 5753 5751 5749 5748 5746 5744 5741 5739 5736 5734 5731 5728 5725 5722 5719 5715 5712 5709 5706 5703 5701 5698 5696 5693 5691 5688 5685 5683 5681 5679 5677 5676 5674 5672 5670 5668 5666 5665 5663 5661 5659 5657 5656 5654 5652 5650 5649 5647 5645 5644 5642 5641 5639 5638 5637 5635 5634 5632 5630 5629 5628
5757 5755 5753 5751 5749 5747 5745 5743 5741 5739 5736 5734 5731 5729 5726 5723 5719 5716 5712 5709 5706 5704 5701 5699 5697 5694 5691 5689 5686 5684 5682 5680 5678 5676 5674 5672 5670 5669 5667 5665 5663 5661 5660 5658 5656 5654 5652 5651 5649 5648 5646 5644 5643 5641 5640 5639 5637 5636 5635 5633 5631 5630 5628
5756 5754 5752 5750 5748 5747 5745 5743 5741 5738 5736 5734 5731 5729 5726 5723 5720 5716 5713 5710 5707 5704 5702 5700 5697 5695 5692 5690 5687 5685 5682 5680 5678 5676 5674 5673 5671 5669 5667 5665 5663 5661 5660 5658 5656 5654 5652 5651 5649 5648 5646 5645 5643 5641 5640 5639 5637 5636 5635 5633 5631 5630 5628
5756 5754 5752 5750 5748 5746 5744 5742 5740 5738 5736 5734 5731 5728 5726 5723 5719 5716 5713 5710 5707 5705 5702 5700 5697 5695 5693 5690 5688 5685 5683 5681 5679 5676 5675 5673 5671 5669 5667 5665 5663 5661 5659 5658 5656 5654 5652 5651 5649 5648 5646 5644 5643 5641 5639 5638 5637 5635 5634 5633 5631 5629 5628
5755 5753 5751 5749 5747 5745 5743 5741 5739 5737 5735 5733 5731 5728 5725 5722 5719 5716 5713 5710 5707 5705 5702 5700 5697 5695 5693 5691 5688 5686 5684 5681 5679 5677 5675 5672 5670 5669 5667 5665 5663 5661 5659 5657 5655 5654 5652 5650 5649 5647 5646 5644 5642 5641 5639 5638 5636 5635 5633 5631 5630 5629 5627
5755 5753 5751 5749 5747 5745 5742 5740 5738 5736 5734 5732 5730 5727 5725 5722 5719 5716 5713 5710 5707 5704 5702 5700 5698 5695 5693 5691 5688 5686 5684 5681 5679 5677 5674 5672 5670 5668 5666 5664 5662 5660 5659 5657 5655 5653 5651 5650 5648 5647 5645 5643 5642 5640 5639 5637 5635 5634 5632 5630 5629 5627 5625
5754 5752 5750 5748 5746 5744 5741 5739 5737 5735 5733 5731 5729 5726 5724 5721 5718 5715 5712 5709 5706 5704 5702 5699 5697 5695 5693 5690 5688 5686 5683 5681 5679 5676 5674 5672 5669 5667 5665 5663 5661 5660 5658 5656 5654 5652 5650 5649 5647 5646 5644 5642 5641 5639 5638 5636 5635 5633 5631 5629 5627 5626 5624
5754 5752 5750 5748 5746 5744 5741 5739 5736 5734 5732 5730 5728 5726 5723 5720 5718 5715 5712 5709 5706 5704 5701 5699 5697 5695 5692 5690 5688 5685 5683 5680 5678 5675 5673 5671 5668 5666 5664 5662 5660 5658 5657 5655 5653 5651 5649 5648 5646 5644 5643 5641 5639 5638 5636 5635 5633 5631 5630 5628 5626 5625 5623
5753 5751 5749 5748 5746 5743 5741 5738 5736 5734 5732 5730 5728 5725 5723 5720 5718 5715 5712 5709 5706 5704 5702 5699 5697 5695 5692 5690 5687 5685 5682 5679 5677 5674 5672 5669 5667 5665 5663 5661 5659 5657 5655 5653 5651 5650 5648 5646 5645 5643 5641 5640 5638 5636 5635 5633 5632 5630 5628 5627 5625 5623 5621
5753 5751 5749 5747 5745 5743 5740 5738 5736 5733 5731 5729 5727 5725 5723 5720 5717 5715 5712 5709 5706 5704 5702 5699 5697 5695 5692 5690 5687 5684 5682 5679 5676 5673 5670 5668 5666 5663 5661 5659 5657 5655 5653 5651 5649 5648 5646 5645 5643 5641 5640 5638 5636 5635 5633 5632 5630 5629 5627 5625 5623 5621 5619
5752 5750 5748 5747 5745 5742 5740 5738 5735 5733 5731 5729 5727 5725 5722 5719 5717 5714 5711 5709 5706 5704 5702 5699 5697 5695 5692 5689 5687 5684 5681 5678 5675 5672 5669 5667 5664 5662 5660 5657 5655 5653 5652 5650 5648 5646 5644 5643 5641 5640 5638 5636 5635 5633 5632 5630 5629 5627 5626 5624 5622 5620 5618
5751 5749 5748 5746 5744 5742 5740 5737 5735 5733 5731 5729 5726 5724 5721 5719 5716 5714 5711 5708 5706 5703 5701 5699 5696 5694 5691 5689 5686 5682 5679 5676 5673 5670 5668 5665 5662 5660 5658 5655 5653 5652 5650 5648 5646 5645 5643 5641 5640 5638 5636 5635 5633 5631 5630 5629 5627 5626 5624 5623 5621 5619 5616
Wind_Speed
36 38 38 38 39 39 37 37 38 40 40 39 37 37 37 37 37 35 36 38 41 43 46 48 49 49 48 47 43 40 37 36 37 37 37 34 31 29 27 25 23 21 21 22 21 20 19 18 18 21 19 18 22 22 19 15 12 10 9 9 14 18 23
36 38 38 38 39 39 37 37 38 40 40 39 37 36 37 37 36 35 35 37 40 42 44 47 48 47 47 46 44 43 41 38 37 37 36 34 32 31 29 27 25 24 23 22 22 21 21 21 22 21 18 17 20 20 19 17 15 12 11 10 14 19 23
36 38 38 38 39 38 36 37 38 40 40 38 37 36 36 36 36 35 34 36 39 41 43 46 48 47 46 45 44 44 42 40 37 37 36 32 30 30 30 30 28 26 24 22 22 22 23 24 23 21 19 18 17 18 18 19 18 15 13 13 14 18 22
36 37 37 38 38 37 36 36 38 39 39 38 37 36 36 36 36 35 34 35 38 40 42 44 47 48 46 45 43 41 40 38 36 36 36 32 28 28 29 30 29 26 24 22 21 22 23 24 23 22 21 19 18 18 18 18 18 18 16 13 14 17 20
36 37 37 37 37 36 36 36 37 39 39 38 37 36 36 36 36 35 34 34 36 39 41 43 45 48 48 46 44 42 39 37 35 35 35 33 29 28 28 28 27 26 24 23 23 23 23 23 23 23 21 20 19 18 17 16 16 19 17 13 14 18 20
35 36 36 37 36 35 35 36 37 38 39 38 37 36 36 35 35 35 33 33 35 38 40 42 44 46 48 47 46 45 42 40 39 37 35 34 32 29 28 28 26 25 24 24 24 24 23 23 23 22 21 19 19 19 18 16 14 16 19 16 14 15 19
35 36 36 36 35 34 35 35 36 38 38 38 37 35 35 35 35 34 33 33 34 36 39 41 43 44 46 48 48 47 46 44 43 42 41 39 37 35 32 30 27 24 24 25 25 24 24 23 22 21 19 18 18 17 15 13 11 13 20 21 18 17 19
34 35 35 35 34 34 34 35 36 37 37 37 36 35 34 34 34 34 34 33 33 35 37 40 42 43 45 47 48 48 48 47 46 46 45 44 42 41 38 35 32 26 23 24 25 24 23 22 20 18 17 16 15 15 15 15 16 17 22 24 21 19 17
34 34 34 34 33 33 34 34 35 36 37 37 36 34 34 34 34 34 34 33 32 33 36 38 40 42 43 45 46 48 48 48 47 46 45 44 44 43 41 39 38 33 27 24 24 24 23 20 18 16 16 15 15 18 21 23 23 22 24 23 19 17 12
33 34 34 34 32 32 33 34 35 36 36 36 36 35 34 33 33 33 34 33 32 32 34 36 38 40 42 43 44 46 47 47 48 47 44 43 42 43 42 41 40 39 35 30 28 28 25 21 18 17 17 17 18 22 26 26 23 23 23 23 21 17 13
33 33 34 33 31 31 33 34 35 35 36 36 36 35 34 33 32 33 33 33 32 31 32 34 36 38 40 41 42 44 45 46 47 47 45 43 42 41 42 42 41 41 40 38 35 32 30 26 23 21 21 22 24 26 27 25 24 23 22 23 22 19 16
32 32 33 32 30 31 33 34 34 35 35 35 36 35 34 32 32 32 32 33 32 31 31 32 34 36 38 40 41 42 42 44 44 45 45 45 44 42 41 42 42 42 42 41 39 36 34 30 27 26 26 27 29 29 28 25 23 22 21 20 20 18 17
31 32 33 32 29 30 32 33 34 34 34 35 35 35 34 32 31 31 31 32 32 31 30 30 32 34 36 37 39 40 40 41 42 43 44 45 45 43 41 41 41 42 42 41 39 38 36 32 29 28 29 29 29 30 28 25 22 20 19 18 18 17 15
30 31 32 31 28 29 31 32 33 34 34 34 35 35 34 32 31 31 31 31 31 31 31 30 30 31 33 35 37 38 39 40 40 40 41 42 44 44 43 41 40 39 39 38 37 36 35 33 30 28 27 26 26 26 26 25 24 23 22 20 19 16 14
29 30 31 29 27 28 30 32 33 33 33 34 34 34 34 33 31 30 30 30 30 31 30 30 29 30 31 33 35 36 38 39 39 39 39 40 40 42 43 42 40 37 35 35 34 34 33 32 31 29 28 27 26 25 25 25 25 25 25 24 23 20 18
28 29 30 28 26 27 30 31 32 32 33 34 34 34 34 33 31 30 30 29 29 29 29 29 29 29 29 31 32 34 36 37 38 38 38 38 38 39 39 40 40 38 35 34 32 31 31 30 29 29 29 29 29 28 26 25 24 24 24 23 23 23 22
28 28 29 27 25 26 29 30 31 31 32 34 34 34 34 33 32 30 29 29 29 29 29 28 28 27 27 29 30 31 33 34 36 36 36 37 37 37 37 37 38 38 38 36 33 30 29 28 27 27 26 27 28 27 26 25 23 21 20 20 21 21 21
26 27 28 26 24 25 28 29 30 30 31 33 34 34 34 33 32 30 29 29 28 28 28 28 28 27 26 27 27 29 30 32 33 34 35 36 36 36 36 36 36 37 37 37 35 33 30 28 27 26 26 25 25 24 23 23 22 20 19 19 18 18 18
25 26 27 25 23 24 26 28 29 29 31 32 34 34 34 33 32 31 29 29 28 28 28 28 28 27 26 25 25 26 27 29 31 32 33 34 34 34 34 34 34 34 35 35 34 34 32 30 28 26 25 25 23 22 21 20 19 19 18 18 17 16 15
24 25 26 24 22 23 25 27 27 28 30 31 33 34 34 34 32 31 30 29 28 27 27 28 28 27 27 26 25 24 25 26 28 30 31 32 32 33 33 32 32 32 32 32 32 32 32 31 30 28 26 24 22 21 20 19 18 17 16 16 15 14 13
23 24 25 23 21 22 24 26 26 27 29 30 32 34 35 34 33 32 30 29 28 27 27 27 28 28 27 26 25 24 23 24 25 27 28 30 30 31 31 31 31 30 30 29 29 30 30 30 29 29 28 26 23 21 19 18 17 16 15 13 12 12 11
22 23 24 22 20 21 23 25 26 26 28 29 31 33 34 35 34 33 31 29 28 27 26 26 27 28 28 27 26 24 23 22 22 24 25 27 28 28 29 30 29 29 28 28 28 28 28 28 27 27 27 26 25 23 21 18 17 16 15 14 12 11 10
21 23 24 22 19 20 22 24 25 26 27 28 30 32 34 35 34 33 31 29 28 27 26 26 27 28 28 27 26 25 23 22 21 21 22 24 25 26 27 27 27 27 27 27 27 27 26 26 26 25 25 25 24 24 23 21 19 16 14 14 13 12 11
21 22 23 21 19 19 22 23 24 25 26 28 29 31 33 34 34 33 31 29 28 27 26 25 27 29 29 28 26 25 23 22 21 20 20 21 22 24 24 25 26 26 26 26 25 25 25 25 24 24 23 23 23 23 22 22 21 20 17 15 14 13 12
20 21 22 21 19 19 21 22 24 25 26 27 28 30 32 33 34 34 32 30 28 28 26 26 28 30 30 29 27 25 24 23 22 20 19 19 20 21 22 23 23 24 25 24 24 24 24 24 24 23 23 22 21 21 21 21 21 21 20 19 17 15 13
20 21 22 21 19 18 19 21 23 24 25 26 28 29 30 32 34 34 32 30 28 28 27 26 27 30 31 30 28 26 24 23 23 22 20 19 19 19 20 21 21 22 22 23 24 23 23 22 23 23 22 22 21 20 20 19 19 19 19 19 19 18 17
20 22 22 21 19 18 18 20 21 23 24 26 27 28 29 31 32 33 32 30 27 27 26 26 27 29 30 30 29 27 25 24 24 23 22 21 19 18 18 19 19 20 20 21 23 23 23 22 22 22 22 22 21 21 20 19 18 18 19 19 19 19 19
21 22 22 21 20 18 18 19 21 22 24 25 26 27 28 29 31 32 32 30 27 26 26 25 26 28 29 29 29 28 27 25 24 24 23 22 21 20 19 19 19 19 19 19 20 22 23 23 23 22 21 21 21 21 21 20 20 19 19 19 19 19 19
20 21 21 21 20 19 18 19 20 22 23 24 25 26 27 28 30 31 32 30 27 25 25 25 25 26 27 28 29 29 28 27 26 25 24 24 23 22 21 20 19 19 19 19 19 20 21 22 22 22 21 21 21 21 21 21 21 20 20 20 20 20 19
20 21 21 21 21 20 19 20 21 22 23 24 25 26 27 28 29 30 31 30 27 25 24 25 25 25 26 27 27 28 28 28 28 27 26 26 25 24 23 22 20 19 19 19 19 19 19 20 20 21 21 21 21 20 21 21 21 22 21 22 22 21 20
20 20 21 22 22 21 21 20 21 22 23 24 25 25 27 27 28 29 30 30 28 26 24 24 25 26 27 27 28 28 28 28 28 28 28 27 26 25 24 23 22 21 20 19 19 19 19 19 19 20 20 21 21 20 20 20 21 22 22 23 23 23 22
19 20 21 22 22 22 22 21 21 21 22 24 25 25 27 27 28 29 30 30 29 27 25 25 25 26 28 29 29 30 30 30 29 29 28 28 27 26 25 24 23 22 21 20 20 20 19 19 19 19 20 20 20 20 21 21 21 21 22 23 23 24 24
19 20 20 21 22 22 22 22 22 22 23 24 24 25 27 27 28 29 29 30 28 27 25 25 26 27 28 29 30 31 32 32 32 31 30 28 28 28 27 26 24 23 22 21 20 20 20 19 19 19 19 19 19 19 20 21 21 22 22 23 23 24 24
19 19 20 21 22 22 23 23 22 23 23 24 25 26 26 27 28 28 29 29 28 26 25 25 25 26 28 29 31 32 33 33 34 33 32 29 27 27 28 27 26 24 23 23 22 21 20 19 19 19 19 18 18 18 19 20 21 22 22 22 23 24 25
19 19 19 21 22 22 23 23 23 23 23 24 25 26 26 27 27 28 28 28 27 26 24 24 25 26 28 30 32 32 33 33 34 34 32 29 27 27 28 28 27 25 24 23 23 22 21 20 19 18 18 18 18 18 18 19 20 21 22 22 22 23 24
19 19 19 20 21 22 23 23 23 23 23 24 25 26 27 28 28 28 28 28 28 26 25 24 25 26 28 31 34 34 35 34 34 33 31 29 29 30 30 29 26 24 23 23 22 22 21 20 19 18 17 17 17 17 17 18 19 20 20 21 21 22 24
19 19 19 19 21 22 23 23 23 23 24 25 26 27 28 28 29 28 28 28 28 27 27 26 26 27 29 32 35 37 38 36 34 32 31 31 31 31 30 27 24 22 21 21 21 21 20 19 19 18 17 17 17 17 17 17 17 18 19 20 20 21 23
Wind_Direction
352 354 354 355 356 357 355 355 356 357 358 -0 1 2 2 2 3 3 4 7 9 8 9 10 11 12 13 15 16 15 12 11 13 16 20 20 20 20 18 14 11 17 22 18 16 16 23 34 32 34 45 47 45 52 61 65 72 84 100 137 158 164 164
352 354 354 355 357 357 356 356 357 358 359 1 2 3 3 3 3 4 5 8 10 10 10 12 15 16 16 16 16 15 13 12 11 14 20 24 24 24 24 22 20 26 33 32 31 32 34 36 32 35 49 53 49 53 63 68 73 87 104 127 149 155 157
353 354 354 355 357 357 356 357 358 359 359 1 3 3 4 4 4 4 5 8 11 11 11 13 16 19 20 20 20 18 15 13 10 12 18 23 26 28 29 30 30 33 38 40 39 40 43 44 40 42 49 51 55 60 67 75 75 82 100 115 134 148 152
353 354 354 355 357 358 357 358 359 359 360 2 4 4 4 4 4 4 5 8 12 13 13 14 17 20 22 24 25 25 22 17 13 13 16 20 22 24 24 27 31 34 37 38 40 44 48 50 52 54 54 54 60 62 62 69 76 84 92 102 124 141 146
353 354 353 354 357 358 357 358 359 359 0 2 4 5 4 4 4 4 5 8 12 13 14 15 17 19 22 25 27 29 30 27 22 19 19 21 23 22 21 24 29 33 36 38 43 49 53 57 59 62 65 66 68 68 62 64 80 92 96 103 125 137 144
353 353 353 354 357 358 357 358 360 360 1 3 5 5 4 4 4 4 5 7 11 14 15 16 18 19 21 24 27 29 32 33 33 30 28 27 29 30 30 32 34 36 38 41 46 53 58 62 63 65 70 71 74 77 74 77 85 90 97 109 123 137 145
353 353 353 354 357 358 357 359 0 0 1 4 5 5 4 4 4 4 5 7 11 13 15 16 18 20 21 23 26 28 30 33 36 36 34 33 32 33 34 34 36 37 40 44 47 52 57 61 63 66 69 71 76 70 63 77 86 88 100 109 116 128 139
353 352 352 354 356 357 357 359 0 1 2 4 6 5 4 4 4 4 5 7 10 13 15 16 18 20 21 23 25 28 29 31 34 36 36 35 33 34 33 31 33 36 39 43 46 49 53 57 60 64 66 68 63 41 40 70 85 95 105 110 118 129 138
352 352 352 354 356 356 357 358 0 1 2 4 6 6 5 4 4 3 5 7 10 13 14 15 17 19 21 23 25 27 29 31 32 34 36 36 35 34 33 31 33 40 45 45 44 46 51 56 54 51 52 47 35 38 60 78 82 92 102 105 117 131 137
352 351 351 354 356 356 356 358 0 1 2 4 6 6 5 4 4 3 4 7 9 12 14 15 17 19 21 22 24 26 28 30 33 33 35 37 37 36 35 33 34 41 49 53 51 51 54 57 53 46 43 39 40 56 72 76 76 84 91 92 100 114 121
351 350 350 353 355 355 356 358 0 1 2 4 6 6 5 5 4 3 4 6 8 10 14 15 16 18 20 22 24 25 27 29 32 33 34 36 38 39 38 37 36 38 45 51 54 55 56 57 53 49 47 46 49 61 71 72 72 77 83 89 96 106 111
350 349 350 353 355 355 356 358 360 1 2 4 6 6 5 5 4 4 4 5 6 9 12 15 16 17 19 21 23 25 26 28 30 32 33 35 36 39 40 40 38 37 39 44 48 51 54 54 51 47 47 50 51 56 64 68 71 74 77 87 95 101 101
349 349 349 352 354 354 355 357 359 0 2 4 6 5 5 5 4 5 5 4 5 7 10 14 16 16 18 20 22 23 25 27 29 31 33 34 35 37 39 41 41 40 39 40 43 46 49 50 49 46 46 49 51 51 53 59 69 78 83 87 90 93 94
349 349 349 352 354 354 355 356 358 360 2 4 6 5 5 5 4 5 6 5 4 5 8 11 14 16 16 18 21 22 23 24 27 30 32 35 35 36 37 40 42 43 42 42 43 45 47 49 49 49 48 48 48 48 49 54 62 73 81 87 89 89 88
347 348 348 351 353 354 355 356 358 359 2 4 5 5 4 5 5 5 6 6 5 5 6 9 12 14 15 16 19 21 21 22 24 27 30 34 36 37 38 39 40 41 42 43 44 45 46 47 48 50 51 52 51 51 54 56 60 64 69 75 78 80 79
346 347 348 351 353 354 355 356 357 359 2 4 5 5 4 4 5 5 6 6 6 6 6 8 10 12 13 15 17 19 20 21 22 24 27 30 34 36 38 40 40 41 41 42 43 43 45 47 48 50 53 55 55 55 57 60 63 64 67 71 74 74 74
346 346 348 351 353 353 355 356 357 359 3 5 5 4 4 4 5 5 6 6 7 7 7 8 9 11 11 13 15 17 19 19 20 21 23 26 30 33 35 38 39 40 41 41 41 40 40 42 43 46 50 54 57 57 58 60 63 66 69 72 75 74 74
345 346 348 351 352 353 354 355 356 359 3 5 6 5 4 4 4 5 5 5 6 7 8 8 9 10 11 11 12 14 17 18 18 19 20 23 26 29 32 34 37 38 40 40 40 38 37 37 37 36 37 42 49 53 56 58 60 63 65 67 70 72 72
344 346 348 350 351 352 354 355 356 358 2 5 7 6 5 4 4 5 5 5 5 6 8 8 9 10 10 10 10 11 14 17 17 17 18 20 22 25 28 30 33 36 37 38 38 38 38 37 36 34 31 29 31 36 43 48 50 52 55 57 59 60 62
344 347 349 350 350 351 352 354 355 357 0 4 6 6 6 5 4 5 5 4 4 5 7 8 9 9 10 9 9 10 11 14 16 16 16 17 19 21 24 27 30 32 34 36 36 36 37 36 36 36 35 31 26 23 24 29 34 37 42 45 45 44 47
344 347 349 349 348 349 351 352 354 356 359 2 4 5 6 6 5 4 4 4 4 4 6 7 8 9 9 8 8 9 9 11 13 14 14 15 17 18 19 22 26 28 29 31 33 34 35 35 34 34 34 33 31 27 21 17 16 17 21 28 32 32 31
343 347 349 349 346 347 349 351 353 355 357 359 1 4 5 6 4 4 4 4 4 4 5 6 7 7 7 6 6 8 8 8 11 13 13 13 14 16 17 19 21 23 24 26 29 31 32 32 33 33 32 31 30 29 27 23 16 7 3 4 8 12 11
343 347 348 347 344 345 347 350 352 354 356 357 359 1 4 5 4 4 4 4 4 5 4 6 7 7 5 3 4 5 6 6 7 10 10 10 11 12 15 16 17 18 19 20 23 26 28 29 29 30 30 30 28 27 26 26 23 17 5 353 348 349 348
343 346 347 345 342 342 346 349 351 353 354 355 356 359 2 4 4 4 4 4 5 5 5 6 7 7 5 3 2 2 3 4 5 6 7 7 8 9 11 13 14 15 15 16 17 19 22 24 24 25 26 26 27 26 25 24 23 21 16 6 353 341 333
342 345 346 345 341 340 343 347 349 351 353 353 354 357 360 1 3 5 4 4 5 6 6 7 7 6 6 5 3 2 1 1 2 3 3 3 4 5 6 8 11 12 11 11 12 13 16 18 19 20 20 20 21 22 23 23 22 19 17 13 7 358 345
341 343 345 344 340 337 340 344 346 348 350 351 352 355 357 358 1 4 4 4 5 6 6 6 7 7 7 8 7 4 2 1 0 0 0 359 360 1 1 2 5 8 8 7 6 7 9 11 13 15 15 15 16 16 16 16 17 16 13 11 8 5 1
341 342 344 345 341 335 336 340 342 345 348 349 350 353 355 357 359 2 4 4 5 6 6 6 7 8 9 11 11 9 6 3 1 0 359 357 355 356 356 356 358 1 3 3 2 2 2 4 6 8 9 9 10 11 10 9 9 8 8 7 5 1 360
341 343 344 345 342 336 333 336 339 342 345 346 348 351 353 355 357 0 2 4 4 5 5 6 7 8 9 11 13 13 11 7 4 1 359 357 355 353 352 352 353 355 357 359 358 357 357 358 359 360 1 3 4 5 4 3 3 2 1 2 1 359 356
341 343 345 346 344 339 335 335 337 339 342 343 346 350 351 353 356 358 0 2 2 3 4 5 6 6 8 9 11 12 12 10 7 4 1 358 356 354 351 349 349 350 352 353 353 352 352 353 353 352 353 355 357 359 359 358 358 358 357 357 356 356 355
341 345 347 348 347 344 340 337 337 338 339 342 345 349 350 352 355 357 358 360 0 0 1 2 4 5 5 6 7 8 8 7 6 4 2 360 357 355 352 349 348 347 348 348 348 347 346 346 345 346 347 348 350 352 354 354 354 354 353 353 353 353 353
341 346 348 348 348 348 345 342 339 338 339 342 345 347 349 351 353 355 356 358 359 358 358 359 360 1 2 3 3 3 3 2 0 359 358 358 357 355 352 350 348 346 345 344 344 343 342 340 339 340 341 343 344 345 346 348 350 351 351 350 350 351 351
340 346 348 348 349 350 348 345 342 341 341 343 345 347 348 350 352 353 355 357 358 357 356 356 356 357 358 358 358 357 357 356 355 353 351 351 351 352 351 349 347 345 343 341 340 339 338 337 336 336 336 336 339 340 340 342 345 347 348 348 348 349 349
338 344 347 348 349 349 348 346 345 344 344 345 345 346 347 349 350 352 354 356 357 357 356 355 354 354 355 355 354 352 351 350 350 349 347 345 346 347 348 346 344 342 341 339 337 335 333 333 334 333 332 331 332 335 337 339 342 343 344 346 346 347 347
335 342 346 346 347 348 348 347 346 346 346 345 345 346 347 348 349 351 353 356 357 356 355 355 354 354 354 354 353 351 349 347 345 345 344 343 343 344 345 343 340 338 338 337 336 332 330 329 330 330 329 328 328 330 333 337 340 342 342 344 345 346 347
331 338 344 345 345 346 346 346 347 347 346 345 344 345 346 347 348 350 352 355 356 355 353 352 351 352 354 354 352 351 349 347 344 343 342 341 341 341 340 339 338 336 335 334 334 332 328 325 325 325 326 327 327 329 331 335 338 340 341 343 345 346 347
329 334 341 344 343 343 344 345 345 345 345 343 343 344 346 347 348 349 351 353 353 352 351 349 348 349 350 351 350 350 349 347 344 342 339 338 337 336 336 335 336 336 334 334 333 331 327 323 321 321 323 326 327 328 330 333 336 339 341 343 346 348 349
326 330 337 341 341 341 342 342 342 342 342 342 343 344 345 346 346 347 349 350 350 350 349 348 347 347 347 347 348 348 347 346 343 340 337 334 333 333 333 334 336 336 336 335 334 332 329 324 320 319 320 323 325 326 329 331 333 336 340 343 347 351 352